• Processing (Info)

  • MPEC 2006-B07 : 2005 EZ300

    The following Minor Planet Electronic Circular may be linked-to from your own Web pages, but must not otherwise be redistributed electronically.

    A form allowing access to any MPEC is at the bottom of this page.


    Read MPEC 2006-B06 Read MPEC 2006-B08


    M.P.E.C. 2006-B07                                Issued 2006 Jan. 18, 23:29 UT
    
         The Minor Planet Electronic Circulars contain information on unusual
             minor planets and routine data on comets.  They are published
       on behalf of Commission 20 of the International Astronomical Union by the
              Minor Planet Center, Smithsonian Astrophysical Observatory,
                              Cambridge, MA 02138, U.S.A.
    
                      Supported in part by the Brinson Foundation
                      Supported in part by the TABASGO Foundation
                 Prepared using the Tamkin Foundation Computer Network
    
                                  MPC@CFA.HARVARD.EDU
              URL http://cfa-www.harvard.edu/iau/mpc.html  ISSN 1523-6714
    
                                      2005 EZ300
    
    Additional Observations:
         K05EU0Z .C2005 12 01.45868 11 43 00.48 +02 32 32.5          22.3 R EB007695
         K05EU0Z .C2005 12 01.50202 11 43 00.60 +02 32 31.7                 EB007695
         K05EU0Z .C2005 12 02.44189 11 43 03.00 +02 32 13.9                 EB007695
    
    Observer details:
    695 Kitt Peak.  Observers L. H. Wasserman, R. L. Millis.  Measurers
        L. H. Wasserman, R. L. Millis, M. W. Buie.  4-m f/2.8 reflector + 8K CCD
        + prime-focus corrector.
    
    Orbital elements:
    2005 EZ300
    Epoch 2006 Mar. 6.0 TT = JDT 2453800.5                  MPC
    M 310.20386              (2000.0)            P               Q
    n   0.00395637     Peri.  250.76628     -0.37553613     +0.92676447
    a  39.5917393      Node   357.12913     -0.76893144     -0.31694660
    e   0.2317668      Incl.   10.30201     -0.51741381     -0.20162457
    P 249              H    7.2           G   0.15           U   4
    Residuals in seconds of arc
    050311 695  0.1-  0.1+    050411 695  0.1+  0.1+    051201 695  0.1+  0.1+
    050312 695  0.1-  0.3+    050411 695  0.1-  0.1+    051201 695  0.2+  0.1+
    050312 695  0.2+  0.1-    050709 304  0.1-  0.2-    051202 695  0.2-  0.1+
    050410 695  0.1+  0.2-    050710 304  0.2-  0.2-
    
    Ephemeris:
    2005 EZ300               a,e,i = 39.59, 0.23, 10                 q = 30.416
    Date    TT    R. A. (2000) Decl.     Delta      r     Elong.  Phase     V
    2006 01 15    11 43.20   +02 29.6   34.745   35.239   119.5     1.4    22.8
    2006 01 25    11 42.77   +02 32.0   34.596   35.233   129.7     1.2    22.8
    2006 02 04    11 42.20   +02 35.3   34.465   35.227   140.1     1.0    22.8
    2006 02 14    11 41.50   +02 39.3   34.359   35.221   150.4     0.8    22.7
    2006 02 24    11 40.70   +02 44.0   34.279   35.214   160.7     0.5    22.7
    2006 03 06    11 39.84   +02 49.0   34.228   35.208   170.9     0.3    22.7
    2006 03 16    11 38.95   +02 54.3   34.207   35.202   178.7     0.0    22.6
    2006 03 26    11 38.06   +02 59.4   34.217   35.196   168.7     0.3    22.7
    2006 04 05    11 37.20   +03 04.3   34.256   35.189   158.6     0.6    22.7
    2006 04 15    11 36.41   +03 08.7   34.324   35.183   148.5     0.9    22.7
    2006 04 25    11 35.72   +03 12.5   34.416   35.177   138.6     1.1    22.8
    2006 05 05    11 35.15   +03 15.5   34.531   35.171   128.7     1.3    22.8
    2006 05 15    11 34.73   +03 17.5   34.664   35.164   118.9     1.4    22.8
    2006 05 25    11 34.45   +03 18.5   34.811   35.158   109.2     1.6    22.8
    2006 06 04    11 34.35   +03 18.5   34.968   35.152    99.6     1.6    22.9
    2006 06 14    11 34.41   +03 17.3   35.129   35.146    90.1     1.7    22.9
    2006 06 24    11 34.65   +03 15.1   35.291   35.139    80.6     1.6    22.9
    2006 07 04    11 35.05   +03 11.8   35.448   35.133    71.2     1.6    22.9
    2006 07 14    11 35.61   +03 07.5   35.595   35.127    61.8     1.5    22.9
    
    Gareth V. Williams           (C) Copyright 2006 MPC           M.P.E.C. 2006-B07
    

    Read MPEC 2006-B06 Read MPEC 2006-B08


    MPEC number:

    Enter an MPEC number in one of the following forms:

    • 1997-B01 (the full form)
    • J97B01 (the packed version of the full form)
    • B01 (the abbreviated form)